When you browse on this site, cookies collect data to enhance your experience and personalize the content and advertising you see.
Visit our Privacy Policy to learn more. By continuing to use the site, you agree to this use of cookies and data.
  • In Österreich
  • Länderverzeichnis
  • Für 7 Tage
  • Wassertemperatur
  • Satellitenkarten
  • Wetterkarte
  • News
  • Widgets
  • user-avatar
    Anmelden

    Stündliche Wetter Kabwe

    Heute, 21 März, Donnerstag

    Zeit Temperatur Niederschläge Wind Luftdruck Luftfeuchtigkeit
    00:00 +21°C° 0 mm 0 m/S 660 mmHg 70%
    01:00 +20°C° 0 mm 0 m/S 659 mmHg 73%
    02:00 +19°C° 0 mm 0 m/S 659 mmHg 76%
    03:00 +19°C° 0 mm 0 m/S 659 mmHg 77%
    04:00 +18°C° 0 mm 0 m/S 659 mmHg 79%
    05:00 +18°C° 0 mm 0 m/S 659 mmHg 80%
    06:00 +19°C° 0 mm 0 m/S 660 mmHg 79%
    07:00 +21°C° 0 mm 0 m/S 660 mmHg 77%
    08:00 +22°C° 0 mm 0 m/S 661 mmHg 75%
    09:00 +26°C° 0 mm 1 m/S 662 mmHg 69%
    10:00 +28°C° 0 mm 1 m/S 662 mmHg 64%
    11:00 +29°C° 0 mm 1 m/S 662 mmHg 58%
    12:00 +30°C° 0 mm 1 m/S 662 mmHg 55%
    13:00 +31°C° 0 mm 1 m/S 661 mmHg 51%
    14:00 +32°C° 0 mm 1 m/S 661 mmHg 47%
    15:00 +29°C° 0 mm 0 m/S 661 mmHg 51%
    16:00 +29°C° 0 mm 0 m/S 660 mmHg 55%
    17:00 +28°C° 0 mm 0 m/S 660 mmHg 58%
    18:00 +26°C° 0 mm 0 m/S 660 mmHg 61%
    19:00 +26°C° 0 mm 1 m/S 660 mmHg 63%
    20:00 +24°C° 0 mm 1 m/S 660 mmHg 66%
    21:00 +23°C° 0 mm 1 m/S 660 mmHg 68%
    22:00 +23°C° 0 mm 1 m/S 660 mmHg 70%
    23:00 +23°C° 0 mm 1 m/S 661 mmHg 72%

    Morgen, 22 März, Freitag

    Zeit Temperatur Niederschläge Wind Luftdruck Luftfeuchtigkeit
    00:00 +22°C° 0 mm 1 m/S 661 mmHg 75%
    01:00 +22°C° 0 mm 1 m/S 660 mmHg 78%
    02:00 +21°C° 0 mm 1 m/S 660 mmHg 81%
    03:00 +21°C° 0 mm 1 m/S 660 mmHg 83%
    04:00 +21°C° 0 mm 1 m/S 660 mmHg 85%
    05:00 +20°C° 0 mm 1 m/S 660 mmHg 87%
    06:00 +20°C° 0 mm 2 m/S 661 mmHg 86%
    07:00 +21°C° 0 mm 2 m/S 661 mmHg 84%
    08:00 +23°C° 0 mm 2 m/S 662 mmHg 82%
    09:00 +24°C° 0 mm 2 m/S 662 mmHg 77%
    10:00 +26°C° 0 mm 2 m/S 663 mmHg 71%
    11:00 +27°C° 0 mm 3 m/S 663 mmHg 66%
    12:00 +28°C° 0.1 mm 2 m/S 662 mmHg 62%
    13:00 +29°C° 0.1 mm 2 m/S 662 mmHg 59%
    14:00 +30°C° 0.1 mm 2 m/S 661 mmHg 56%
    15:00 +29°C° 0.2 mm 2 m/S 661 mmHg 61%
    16:00 +28°C° 0.2 mm 2 m/S 660 mmHg 66%
    17:00 +28°C° 0.2 mm 1 m/S 660 mmHg 71%
    18:00 +26°C° 0.2 mm 1 m/S 660 mmHg 75%
    19:00 +24°C° 0.2 mm 1 m/S 661 mmHg 79%
    20:00 +22°C° 0.2 mm 1 m/S 661 mmHg 83%
    21:00 +22°C° 0 mm 1 m/S 661 mmHg 85%
    22:00 +21°C° 0 mm 1 m/S 662 mmHg 87%
    23:00 +21°C° 0 mm 1 m/S 662 mmHg 89%

    übermorgen, 23 März, Samstag

    Zeit Temperatur Niederschläge Wind Luftdruck Luftfeuchtigkeit
    00:00 +21°C° 0 mm 1 m/S 662 mmHg 91%
    01:00 +20°C° 0 mm 1 m/S 661 mmHg 93%
    02:00 +20°C° 0 mm 1 m/S 661 mmHg 94%
    03:00 +20°C° 0 mm 1 m/S 661 mmHg 95%
    04:00 +18°C° 0 mm 2 m/S 661 mmHg 96%
    05:00 +18°C° 0 mm 2 m/S 661 mmHg 97%
    06:00 +19°C° 0 mm 3 m/S 661 mmHg 95%
    07:00 +20°C° 0 mm 3 m/S 662 mmHg 92%
    08:00 +21°C° 0 mm 4 m/S 663 mmHg 90%
    09:00 +22°C° 0.1 mm 4 m/S 663 mmHg 84%
    10:00 +23°C° 0.1 mm 4 m/S 663 mmHg 79%
    11:00 +25°C° 0.1 mm 4 m/S 663 mmHg 74%
    12:00 +26°C° 0 mm 3 m/S 663 mmHg 70%
    13:00 +27°C° 0 mm 3 m/S 662 mmHg 67%
    14:00 +28°C° 0 mm 3 m/S 662 mmHg 63%
    15:00 +27°C° 0.1 mm 2 m/S 661 mmHg 66%
    16:00 +27°C° 0.1 mm 2 m/S 661 mmHg 69%
    17:00 +27°C° 0.1 mm 2 m/S 661 mmHg 72%
    18:00 +25°C° 0 mm 2 m/S 661 mmHg 77%
    19:00 +23°C° 0 mm 2 m/S 661 mmHg 81%
    20:00 +21°C° 0 mm 2 m/S 661 mmHg 86%
    21:00 +20°C° 0 mm 2 m/S 661 mmHg 87%
    22:00 +20°C° 0 mm 2 m/S 661 mmHg 89%
    23:00 +19°C° 0 mm 2 m/S 662 mmHg 90%

    24 März, Sonntag

    Zeit Temperatur Niederschläge Wind Luftdruck Luftfeuchtigkeit
    00:00 +19°C° 0 mm 2 m/S 661 mmHg 91%
    01:00 +19°C° 0 mm 2 m/S 661 mmHg 92%
    02:00 +19°C° 0 mm 2 m/S 660 mmHg 93%
    03:00 +18°C° 0 mm 2 m/S 660 mmHg 95%
    04:00 +18°C° 0 mm 2 m/S 660 mmHg 96%
    05:00 +18°C° 0 mm 2 m/S 660 mmHg 97%
    06:00 +19°C° 0 mm 3 m/S 661 mmHg 94%
    07:00 +20°C° 0 mm 4 m/S 661 mmHg 90%
    08:00 +20°C° 0 mm 4 m/S 662 mmHg 87%
    09:00 +21°C° 0 mm 4 m/S 662 mmHg 85%
    10:00 +21°C° 0 mm 4 m/S 662 mmHg 84%
    11:00 +21°C° 0 mm 4 m/S 662 mmHg 82%
    12:00 +22°C° 0 mm 3 m/S 661 mmHg 78%
    13:00 +24°C° 0 mm 3 m/S 661 mmHg 75%
    14:00 +25°C° 0 mm 3 m/S 660 mmHg 71%
    15:00 +25°C° 0 mm 3 m/S 660 mmHg 71%
    16:00 +26°C° 0 mm 2 m/S 660 mmHg 72%
    17:00 +26°C° 0 mm 2 m/S 660 mmHg 72%
    18:00 +24°C° 0 mm 2 m/S 660 mmHg 76%
    19:00 +23°C° 0 mm 2 m/S 660 mmHg 81%
    20:00 +21°C° 0 mm 1 m/S 660 mmHg 85%
    21:00 +21°C° 0 mm 1 m/S 660 mmHg 85%
    22:00 +20°C° 0 mm 1 m/S 660 mmHg 84%
    23:00 +20°C° 0 mm 1 m/S 661 mmHg 84%

    25 März, Montag

    Zeit Temperatur Niederschläge Wind Luftdruck Luftfeuchtigkeit
    00:00 +19°C° 0 mm 1 m/S 660 mmHg 86%
    01:00 +19°C° 0 mm 1 m/S 660 mmHg 88%
    02:00 +19°C° 0 mm 1 m/S 659 mmHg 90%
    03:00 +18°C° 0 mm 1 m/S 659 mmHg 92%
    04:00 +18°C° 0 mm 1 m/S 660 mmHg 94%
    05:00 +18°C° 0 mm 1 m/S 660 mmHg 96%
    06:00 +18°C° 0 mm 2 m/S 660 mmHg 91%
    07:00 +19°C° 0 mm 2 m/S 661 mmHg 87%
    08:00 +20°C° 0 mm 3 m/S 662 mmHg 82%
    09:00 +22°C° 0 mm 3 m/S 662 mmHg 76%
    10:00 +25°C° 0 mm 3 m/S 662 mmHg 70%
    11:00 +27°C° 0 mm 3 m/S 662 mmHg 64%
    12:00 +28°C° 0 mm 3 m/S 662 mmHg 60%
    13:00 +28°C° 0 mm 2 m/S 661 mmHg 56%
    14:00 +29°C° 0 mm 2 m/S 660 mmHg 52%
    15:00 +29°C° 0 mm 2 m/S 660 mmHg 56%
    16:00 +29°C° 0 mm 1 m/S 660 mmHg 60%
    17:00 +28°C° 0 mm 1 m/S 660 mmHg 63%
    18:00 +26°C° 0 mm 1 m/S 660 mmHg 66%
    19:00 +24°C° 0 mm 1 m/S 660 mmHg 69%
    20:00 +22°C° 0 mm 1 m/S 660 mmHg 72%
    21:00 +22°C° 0 mm 1 m/S 661 mmHg 74%
    22:00 +22°C° 0 mm 1 m/S 661 mmHg 77%
    23:00 +21°C° 0 mm 1 m/S 661 mmHg 79%

    26 März, Dienstag

    Zeit Temperatur Niederschläge Wind Luftdruck Luftfeuchtigkeit
    00:00 +21°C° 0 mm 1 m/S 661 mmHg 82%
    01:00 +21°C° 0 mm 1 m/S 660 mmHg 85%
    02:00 +20°C° 0 mm 1 m/S 660 mmHg 87%
    03:00 +20°C° 0 mm 1 m/S 660 mmHg 89%
    04:00 +20°C° 0 mm 1 m/S 660 mmHg 91%
    05:00 +20°C° 0 mm 1 m/S 660 mmHg 93%
    06:00 +21°C° 0 mm 1 m/S 661 mmHg 90%
    07:00 +22°C° 0 mm 1 m/S 662 mmHg 86%
    08:00 +23°C° 0 mm 1 m/S 662 mmHg 82%
    09:00 +25°C° 0 mm 1 m/S 663 mmHg 73%
    10:00 +27°C° 0 mm 1 m/S 663 mmHg 65%
    11:00 +29°C° 0 mm 1 m/S 663 mmHg 56%
    12:00 +29°C° 0 mm 1 m/S 663 mmHg 56%
    13:00 +29°C° 0 mm 1 m/S 662 mmHg 56%
    14:00 +29°C° 0 mm 1 m/S 661 mmHg 56%
    15:00 +29°C° 0 mm 1 m/S 661 mmHg 59%
    16:00 +29°C° 0 mm 1 m/S 661 mmHg 61%
    17:00 +28°C° 0 mm 1 m/S 661 mmHg 63%
    18:00 +27°C° 0 mm 1 m/S 662 mmHg 65%
    19:00 +25°C° 0 mm 1 m/S 662 mmHg 67%
    20:00 +24°C° 0 mm 1 m/S 662 mmHg 69%
    21:00 +23°C° 0 mm 1 m/S 662 mmHg 71%
    22:00 +22°C° 0 mm 1 m/S 662 mmHg 73%
    23:00 +22°C° 0 mm 1 m/S 662 mmHg 75%
    Mehr zeigen